#timestamp,LO_Frequency,Hit,Temp,Hum 
1488009615.3,286046965.2,N,0.0,0.0
1488009635.1,286046969.2,N,0.0,0.0
1488009655.8,286046964.0,N,0.0,0.0
1488009675.7,286046960.4,N,0.0,0.0
1488009695.5,286046962.4,N,0.0,0.0
1488009715.3,286046960.6,N,0.0,0.0
1488009735.2,286046959.2,N,0.0,0.0
1488009755.9,286046960.1,N,0.0,0.0
1488009775.7,286046961.3,N,0.0,0.0
1488009795.6,286046962.7,N,0.0,0.0
1488009815.4,286046961.7,N,0.0,0.0
1488009835.2,286046961.9,N,0.0,0.0
1488009855.1,286046960.2,N,0.0,0.0
1488009856.0,286046960.2,N,0.0,0.0
1488009875.8,286046958.2,N,0.0,0.0
1488009895.6,286046958.2,N,0.0,0.0
1488009915.5,286046960.4,N,0.0,0.0
1488009935.3,286046962.2,N,0.0,0.0
1488009955.1,286046963.9,N,0.0,0.0
1488009975.8,286046965.7,N,0.0,0.0
1488009995.7,286046963.0,N,0.0,0.0
1488010015.5,286046964.7,N,0.0,0.0
1488010035.3,286046966.3,N,0.0,0.0
1488010055.2,286046968.6,N,0.0,0.0
1488010075.0,286046969.2,N,0.0,0.0
1488010075.9,286046969.2,N,0.0,0.0
1488010095.7,286046967.4,N,0.0,0.0
1488010115.6,286046966.3,N,0.0,0.0
1488010135.4,286046965.4,N,0.0,0.0
1488010155.2,286046963.9,N,0.0,0.0
1488010175.1,286046963.8,N,0.0,0.0
1488010176.0,286046963.8,N,0.0,0.0
1488010195.8,286046963.3,N,0.0,0.0
1488010215.6,286046965.5,N,0.0,0.0
1488010235.5,286046965.2,N,0.0,0.0
1488010255.3,286046962.9,N,0.0,0.0
1488010275.1,286046964.2,N,0.0,0.0
1488010295.9,286046961.4,N,0.0,0.0
1488010315.7,286046964.6,N,0.0,0.0
1488010335.5,286046970.3,N,0.0,0.0
1488010355.4,286046971.3,N,0.0,0.0
1488010375.2,286046980.4,N,0.0,0.0
1488010395.0,286046984.1,N,0.0,0.0
1488010395.9,286046984.1,N,0.0,0.0
1488010415.8,286046988.8,N,0.0,0.0
1488010435.6,286046994.7,N,0.0,0.0
1488010455.4,286046995.3,N,0.0,0.0
1488010475.3,286046998.6,N,0.0,0.0
1488010495.1,286047003.3,N,0.0,0.0
1488010496.0,286047003.3,N,0.0,0.0
1488010515.8,286047006.3,N,0.0,0.0
1488010535.7,286047006.4,N,0.0,0.0
1488010555.5,286047007.8,N,0.0,0.0
1488010575.3,286047008.5,N,0.0,0.0
1488010595.2,286047013.8,N,0.0,0.0
1488010615.9,286047016.1,N,0.0,0.0
1488010635.7,286047017.4,N,0.0,0.0
1488010655.5,286047021.8,N,0.0,0.0
1488010675.4,286047023.8,N,0.0,0.0
1488010695.2,286047023.2,N,0.0,0.0
1488010715.0,286047034.8,N,0.0,0.0
1488010715.9,286047034.8,N,0.0,0.0
1488010735.8,286047036.3,N,0.0,0.0
1488010755.6,286047033.8,N,0.0,0.0
1488010775.4,286047036.1,N,0.0,0.0
1488010795.3,286047038.3,N,0.0,0.0
1488010815.1,286047041.7,N,0.0,0.0
1488010835.8,286047046.8,N,0.0,0.0
1488010855.7,286047047.7,N,0.0,0.0
1488010875.5,286047046.7,N,0.0,0.0
1488010895.3,286047047.6,N,0.0,0.0
1488010915.2,286047052.3,N,0.0,0.0
1488010935.9,286047055.4,N,0.0,0.0
1488010955.7,286047065.5,N,0.0,0.0
1488010975.6,286047068.3,N,0.0,0.0
1488010995.4,286047065.9,N,0.0,0.0
1488011015.2,286047064.3,N,0.0,0.0
1488011035.1,286047063.1,N,0.0,0.0
1488011036.0,286047063.1,N,0.0,0.0
1488011055.8,286047061.9,N,0.0,0.0
1488011075.6,286047062.4,N,0.0,0.0
1488011095.5,286047060.9,N,0.0,0.0
1488011115.3,286047059.1,N,0.0,0.0
1488011135.1,286047054.1,N,0.0,0.0
1488011155.9,286047057.0,N,0.0,0.0
1488011175.7,286047052.1,N,0.0,0.0
1488011195.5,286047051.7,N,0.0,0.0
1488011215.4,286047045.6,N,0.0,0.0
1488011235.2,286047042.3,N,0.0,0.0
1488011255.0,286047034.9,N,0.0,0.0
1488011255.9,286047034.9,N,0.0,0.0
1488011275.8,286047029.1,N,0.0,0.0
1488011295.6,286047031.5,N,0.0,0.0
1488011315.4,286047028.2,N,0.0,0.0
1488011335.2,286047029.8,N,0.0,0.0
1488011355.1,286047027.7,N,0.0,0.0
1488011375.8,286047025.3,N,0.0,0.0
1488011395.7,286047028.2,N,0.0,0.0
1488011415.5,286047027.6,N,0.0,0.0
1488011435.3,286047028.1,N,0.0,0.0
1488011455.2,286047025.9,N,0.0,0.0
1488011475.9,286047024.2,N,0.0,0.0
1488011495.7,286047024.6,N,0.0,0.0
1488011515.6,286047025.0,N,0.0,0.0
1488011535.4,286047021.8,N,0.0,0.0
1488011555.2,286047020.6,N,0.0,0.0
1488011575.1,286047021.7,N,0.0,0.0
1488011576.0,286047021.7,N,0.0,0.0
1488011595.8,286047019.8,N,0.0,0.0
1488011615.6,286047019.6,N,0.0,0.0
1488011635.5,286047016.5,N,0.0,0.0
1488011655.3,286047013.6,N,0.0,0.0
1488011675.1,286047009.3,N,0.0,0.0
1488011695.9,286047010.9,N,0.0,0.0
1488011715.7,286047009.7,N,0.0,0.0
1488011735.5,286047009.5,N,0.0,0.0
1488011755.3,286047008.5,N,0.0,0.0
1488011775.2,286047007.3,N,0.0,0.0
1488011795.0,286047004.0,N,0.0,0.0
1488011795.9,286047004.0,N,0.0,0.0
1488011815.7,286047000.5,N,0.0,0.0
1488011835.6,286047000.8,N,0.0,0.0
1488011855.4,286046999.2,N,0.0,0.0
1488011875.2,286046999.2,N,0.0,0.0
1488011895.1,286046995.4,N,0.0,0.0
1488011896.0,286046995.4,N,0.0,0.0
1488011915.8,286046993.1,N,0.0,0.0
1488011935.8,286046997.3,N,0.0,0.0
1488011955.6,286046997.6,N,0.0,0.0
1488011975.5,286046998.7,N,0.0,0.0
1488011995.3,286047003.5,N,0.0,0.0
1488012015.1,286047010.3,N,0.0,0.0
1488012035.8,286047014.1,N,0.0,0.0
1488012055.7,286047021.4,N,0.0,0.0
1488012075.5,286047025.7,N,0.0,0.0
1488012095.3,286047033.0,N,0.0,0.0
1488012115.2,286047044.6,N,0.0,0.0
1488012135.0,286047043.7,N,0.0,0.0
1488012135.9,286047043.7,N,0.0,0.0
1488012155.7,286047038.3,N,0.0,0.0
1488012175.6,286047037.9,N,0.0,0.0
1488012195.4,286047038.3,N,0.0,0.0
1488012215.2,286047041.4,N,0.0,0.0
1488012235.1,286047049.8,N,0.0,0.0
1488012236.0,286047049.8,N,0.0,0.0
1488012255.8,286047051.9,N,0.0,0.0
1488012275.6,286047058.3,N,0.0,0.0
1488012295.5,286047065.0,N,0.0,0.0
1488012315.3,286047072.7,N,0.0,0.0
1488012335.1,286047069.5,N,0.0,0.0
1488012355.9,286047064.9,N,0.0,0.0
1488012375.7,286047055.0,N,0.0,0.0
1488012395.5,286047050.2,N,0.0,0.0
1488012415.4,286047050.6,N,0.0,0.0
1488012435.2,286047050.3,N,0.0,0.0
1488012455.0,286047061.9,N,0.0,0.0
1488012455.9,286047061.9,N,0.0,0.0
1488012475.8,286047052.7,N,0.0,0.0
1488012495.6,286047048.5,N,0.0,0.0
1488012515.4,286047048.1,N,0.0,0.0
1488012535.3,286047060.0,N,0.0,0.0
1488012555.1,286047061.5,N,0.0,0.0
1488012556.0,286047061.5,N,0.0,0.0
1488012575.8,286047063.7,N,0.0,0.0
1488012595.7,286047066.0,N,0.0,0.0
1488012615.5,286047072.9,N,0.0,0.0
1488012635.3,286047079.1,N,0.0,0.0
1488012655.1,286047081.8,N,0.0,0.0
1488012675.9,286047084.9,N,0.0,0.0
1488012695.7,286047088.0,N,0.0,0.0
1488012715.5,286047090.0,N,0.0,0.0
1488012735.4,286047089.5,N,0.0,0.0
1488012755.2,286047092.6,N,0.0,0.0
1488012775.0,286047092.7,N,0.0,0.0
1488012775.9,286047092.7,N,0.0,0.0
1488012795.8,286047097.2,N,0.0,0.0
1488012815.6,286047095.7,N,0.0,0.0
1488012835.4,286047097.3,N,0.0,0.0
1488012855.3,286047103.9,N,0.0,0.0
1488012875.1,286047107.8,N,0.0,0.0
1488012895.6,286047107.2,N,0.0,0.0
1488012915.4,286047100.0,N,0.0,0.0
1488012935.3,286047093.8,N,0.0,0.0
1488012955.1,286047084.3,N,0.0,0.0
1488012956.0,286047084.3,N,0.0,0.0
1488012975.8,286047074.3,N,0.0,0.0
1488012995.7,286047070.0,N,0.0,0.0
1488013015.5,286047065.2,N,0.0,0.0
1488013035.3,286047060.0,N,0.0,0.0
1488013055.2,286047051.5,N,0.0,0.0
1488013075.9,286047043.7,N,0.0,0.0
1488013095.7,286047039.5,N,0.0,0.0
1488013115.6,286047041.8,N,0.0,0.0
1488013135.4,286047035.4,N,0.0,0.0
1488013155.2,286047035.6,N,0.0,0.0
1488013175.0,286047030.1,N,0.0,0.0
1488013176.0,286047030.1,N,0.0,0.0
1488013195.8,286047030.0,N,0.0,0.0
